Morgantown, WV

1:51 PM EDT on September 24, 2017 (GMT -0400)
Morgantown Municipal-Hart

Weather History for KMGW - April, 2013

Change the Weather History Date:

Thursday, April 18, 2013

  Actual Average Record
Temperature  
Mean Temperature 75 °F 54 °F  
Max Temperature 85 °F 65 °F 92 °F (1976)
Min Temperature 64 °F 42 °F 26 °F (1951)
Degree Days  
Heating Degree Days 0 12  
Month to date heating degree days 171 261  
Since 1 July heating degree days 4643 4862  
Cooling Degree Days 10 0  
Month to date cooling degree days 36 0  
Year to date cooling degree days 36 2  
Growing Degree Days 23 (Base 50)    
Moisture  
Dew Point 55 °F    
Average Humidity 55    
Maximum Humidity 73    
Minimum Humidity 37    
Precipitation  
Precipitation 0.04 in 0.11 in 0.84 in (1989)
Month to date precipitation 1.21 2.10  
Year to date precipitation 8.16 11.16  
Sea Level Pressure  
Sea Level Pressure 29.95 in    
Wind  
Wind Speed 12 mph (SSE)    
Max Wind Speed 25 mph    
Max Gust Speed 35 mph    
Visibility 10 miles    
Events Rain    
T = Trace of Precipitation, MM = Missing Value Source: NWS Daily Summary

Daily Weather History Graph

Daily Weather History Graph

Search for Another Location

Airport or City:

Trip Planner

Search our weather history database for the weather conditions in past years. The results will help you decide how hot, cold, wet, or windy it might be!

Date:

Astronomy

Apr. 18, 2013 Rise Set
Actual Time 6:37 AM EDT 8:00 PM EDT
Civil Twilight 6:09 AM EDT 8:29 PM EDT
Nautical Twilight 5:35 AM EDT 9:02 PM EDT
Astronomical Twilight 5:00 AM EDT 9:38 PM EDT
Moon 12:47 PM EDT (4/18) 2:14 AM EDT (4/18)
Length of Visible Light 14h 19m
Length of Day
13h 23m
First Quarter, 51% of the Moon is Illuminated
Apr 18
First Quarter
Apr 25
Full
May 2
Last Quarter
May 9
New
May 18
First Quarter

Hourly Weather History & Observations

Time (EDT) Temp. Heat Index Dew Point Humidity Pressure Visibility Wind Dir Wind Speed Gust Speed Precip Events Conditions
12:53 AM 64.9 °F - 55.9 °F 73% 30.11 in 10.0 mi SE 6.9 mph - N/A   Clear
1:53 AM 64.9 °F - 55.9 °F 73% 30.09 in 10.0 mi SE 8.1 mph - N/A   Clear
2:53 AM 64.0 °F - 55.9 °F 75% 30.07 in 10.0 mi SE 12.7 mph 23.0 mph N/A   Clear
3:53 AM 64.0 °F - 55.9 °F 75% 30.05 in 10.0 mi SE 10.4 mph - N/A   Clear
4:53 AM 64.0 °F - 55.9 °F 75% 30.02 in 10.0 mi SE 10.4 mph - N/A   Clear
5:53 AM 64.9 °F - 55.9 °F 73% 30.01 in 10.0 mi SE 15.0 mph 19.6 mph N/A   Clear
6:53 AM 64.9 °F - 55.9 °F 73% 30.02 in 10.0 mi SSE 9.2 mph - N/A   Clear
7:53 AM 68.0 °F - 55.9 °F 65% 30.04 in 10.0 mi South 6.9 mph - N/A   Clear
8:53 AM 72.0 °F - 57.0 °F 59% 30.04 in 10.0 mi South 6.9 mph - N/A   Clear
9:53 AM 75.9 °F - 55.9 °F 50% 30.02 in 10.0 mi South 6.9 mph 17.3 mph N/A   Clear
10:53 AM 79.0 °F - 55.9 °F 45% 30.01 in 10.0 mi South 11.5 mph 19.6 mph N/A   Partly Cloudy
11:53 AM 75.9 °F - 59.0 °F 56% 30.01 in 3.0 mi SW 8.1 mph 19.6 mph 0.02 in Rain Rain
12:53 PM 80.1 °F 80.9 °F 60.1 °F 50% 29.96 in 7.0 mi South 6.9 mph - 0.02 in   Scattered Clouds
12:55 PM 80.6 °F 81.5 °F 60.8 °F 51% 29.98 in 10.0 mi South 5.8 mph - N/A   Scattered Clouds
1:53 PM 82.0 °F 81.6 °F 55.9 °F 41% 29.91 in 10.0 mi SSE 16.1 mph 20.7 mph N/A   Scattered Clouds
2:53 PM 82.9 °F 81.9 °F 54.0 °F 37% 29.88 in 10.0 mi South 11.5 mph 20.7 mph N/A   Scattered Clouds
3:53 PM 82.9 °F 81.9 °F 54.0 °F 37% 29.86 in 10.0 mi South 11.5 mph 25.3 mph N/A   Mostly Cloudy
4:53 PM 82.9 °F 81.9 °F 54.0 °F 37% 29.86 in 10.0 mi South 11.5 mph 23.0 mph N/A   Mostly Cloudy
5:53 PM 80.1 °F 80.0 °F 54.0 °F 40% 29.86 in 10.0 mi South 19.6 mph 31.1 mph N/A   Mostly Cloudy
6:53 PM 79.0 °F - 54.0 °F 42% 29.85 in 10.0 mi SSE 21.9 mph 34.5 mph N/A   Partly Cloudy
7:53 PM 77.0 °F - 52.0 °F 42% 29.85 in 10.0 mi South 18.4 mph 24.2 mph N/A   Clear
8:53 PM 75.0 °F - 52.0 °F 44% 29.86 in 10.0 mi South 11.5 mph 20.7 mph N/A   Clear
9:53 PM 73.9 °F - 52.0 °F 46% 29.86 in 10.0 mi SSE 16.1 mph 31.1 mph N/A   Clear
10:53 PM 73.0 °F - 52.0 °F 48% 29.84 in 10.0 mi South 13.8 mph 23.0 mph N/A   Clear
11:53 PM 72.0 °F - 51.1 °F 48% 29.81 in 10.0 mi South 11.5 mph 26.5 mph N/A   Clear